Time,TemperatureF,DewpointF,PressureIn,WindDirection,WindDirectionDegrees,WindSpeedMPH,WindSpeedGustMPH,Humidity,HourlyPrecipIn,Conditions,Clouds,dailyrainin,SoftwareType,DateUTC
2013-02-21 00:00:00,20.7,9.0,30.33,NE,45,12.3,17.5,60,0.00,,CLR,0.00,VWS V14.01,2013-02-21 05:00:00,
2013-02-21 00:01:00,20.7,9.0,30.33,NW,315,11.0,17.5,60,0.00,,CLR,0.00,VWS V14.01,2013-02-21 05:01:00,
2013-02-21 00:02:00,20.7,9.0,30.33,NNW,338,13.2,17.5,60,0.00,,CLR,0.00,VWS V14.01,2013-02-21 05:02:00,
2013-02-21 00:08:00,20.7,8.2,30.33,NNW,338,17.9,17.9,58,0.00,,CLR,0.00,VWS V14.01,2013-02-21 05:08:00,
2013-02-21 00:11:00,20.7,8.2,30.33,North,0,10.1,19.5,58,0.00,,CLR,0.00,VWS V14.01,2013-02-21 05:11:00,
2013-02-21 00:16:00,20.7,8.6,30.33,NW,315,13.0,19.5,59,0.00,,CLR,0.00,VWS V14.01,2013-02-21 05:16:00,
2013-02-21 00:21:00,20.7,8.6,30.33,NNW,338,6.0,19.5,59,0.00,,CLR,0.00,VWS V14.01,2013-02-21 05:21:00,
2013-02-21 00:26:00,20.5,8.4,30.33,NNW,338,10.3,19.5,59,0.00,,CLR,0.00,VWS V14.01,2013-02-21 05:26:00,
2013-02-21 00:31:00,20.5,8.4,30.33,NNW,338,11.0,19.5,59,0.00,,CLR,0.00,VWS V14.01,2013-02-21 05:31:00,
2013-02-21 00:36:00,20.3,8.3,30.33,North,0,9.8,19.5,59,0.00,,CLR,0.00,VWS V14.01,2013-02-21 05:36:00,
2013-02-21 00:41:00,20.3,8.3,30.33,NW,315,9.8,19.5,59,0.00,,CLR,0.00,VWS V14.01,2013-02-21 05:41:00,
2013-02-21 00:46:00,20.3,8.6,30.33,NNE,22,6.5,19.5,60,0.00,,CLR,0.00,VWS V14.01,2013-02-21 05:46:00,
2013-02-21 00:51:00,20.3,8.6,30.33,NNW,338,9.4,19.5,60,0.00,,CLR,0.00,VWS V14.01,2013-02-21 05:51:00,
2013-02-21 00:56:00,20.1,8.1,30.33,NW,315,12.3,19.5,59,0.00,,CLR,0.00,VWS V14.01,2013-02-21 05:56:00,
2013-02-21 01:00:00,20.1,8.5,30.36,NNW,338,6.5,13.0,60,0.00,,CLR,0.00,VWS V14.01,2013-02-21 06:00:00,
2013-02-21 01:01:00,20.1,7.7,30.33,North,0,8.1,19.5,58,0.00,,CLR,0.00,VWS V14.01,2013-02-21 06:01:00,
2013-02-21 01:06:00,20.1,8.1,30.33,North,0,10.1,19.5,59,0.00,,CLR,0.00,VWS V14.01,2013-02-21 06:06:00,
2013-02-21 01:11:00,19.9,7.9,30.33,North,0,9.2,11.9,59,0.00,,CLR,0.00,VWS V14.01,2013-02-21 06:11:00,
2013-02-21 01:16:00,19.9,7.9,30.36,NW,315,4.9,12.1,59,0.00,,CLR,0.00,VWS V14.01,2013-02-21 06:16:00,
2013-02-21 01:21:00,19.9,7.9,30.36,North,0,9.4,13.0,59,0.00,,CLR,0.00,VWS V14.01,2013-02-21 06:21:00,
2013-02-21 01:26:00,19.9,8.3,30.36,NNW,338,7.8,13.0,60,0.00,,CLR,0.00,VWS V14.01,2013-02-21 06:26:00,
2013-02-21 01:31:00,19.9,8.3,30.36,NW,315,5.4,13.0,60,0.00,,CLR,0.00,VWS V14.01,2013-02-21 06:31:00,
2013-02-21 01:36:00,19.9,8.7,30.36,NNW,338,5.8,13.0,61,0.00,,CLR,0.00,VWS V14.01,2013-02-21 06:36:00,
2013-02-21 01:41:00,19.9,7.9,30.36,NNW,338,7.2,13.0,59,0.00,,CLR,0.00,VWS V14.01,2013-02-21 06:41:00,
2013-02-21 01:46:00,19.9,8.3,30.36,NNW,338,4.5,13.0,60,0.00,,CLR,0.00,VWS V14.01,2013-02-21 06:46:00,
2013-02-21 01:51:00,19.9,8.3,30.36,NW,315,6.3,13.0,60,0.00,,CLR,0.00,VWS V14.01,2013-02-21 06:51:00,
2013-02-21 01:56:00,20.1,8.1,30.36,NW,315,8.5,13.0,59,0.00,,CLR,0.00,VWS V14.01,2013-02-21 06:56:00,
2013-02-21 02:00:00,20.1,9.2,30.36,NNW,338,4.7,10.1,62,0.00,,CLR,0.00,VWS V14.01,2013-02-21 07:00:00,
2013-02-21 02:01:00,20.1,8.5,30.36,NNW,338,5.8,13.0,60,0.00,,CLR,0.00,VWS V14.01,2013-02-21 07:01:00,
2013-02-21 02:06:00,20.1,8.5,30.36,NNW,338,5.6,13.0,60,0.00,,CLR,0.00,VWS V14.01,2013-02-21 07:06:00,
2013-02-21 02:11:00,20.1,8.1,30.36,NNW,338,6.0,7.6,59,0.00,,CLR,0.00,VWS V14.01,2013-02-21 07:11:00,
2013-02-21 02:16:00,20.1,8.1,30.36,NNW,338,6.5,8.1,59,0.00,,CLR,0.00,VWS V14.01,2013-02-21 07:16:00,
2013-02-21 02:21:00,20.1,8.1,30.36,North,0,5.6,9.8,59,0.00,,CLR,0.00,VWS V14.01,2013-02-21 07:21:00,
2013-02-21 02:26:00,20.1,8.5,30.36,NNW,338,5.8,9.8,60,0.00,,CLR,0.00,VWS V14.01,2013-02-21 07:26:00,
2013-02-21 02:31:00,20.1,8.8,30.36,North,0,5.6,9.8,61,0.00,,CLR,0.00,VWS V14.01,2013-02-21 07:31:00,
2013-02-21 02:36:00,20.1,8.5,30.36,NW,315,7.8,9.8,60,0.00,,CLR,0.00,VWS V14.01,2013-02-21 07:36:00,
2013-02-21 02:41:00,20.1,8.5,30.36,NNW,338,5.8,9.8,60,0.00,,CLR,0.00,VWS V14.01,2013-02-21 07:41:00,
2013-02-21 02:46:00,20.1,8.5,30.36,North,0,5.4,9.8,60,0.00,,CLR,0.00,VWS V14.01,2013-02-21 07:46:00,
2013-02-21 02:51:00,20.1,8.1,30.36,NNW,338,6.3,10.1,59,0.00,,CLR,0.00,VWS V14.01,2013-02-21 07:51:00,
2013-02-21 02:56:00,20.1,8.5,30.36,NW,315,4.9,10.1,60,0.00,,CLR,0.00,VWS V14.01,2013-02-21 07:56:00,
2013-02-21 03:00:00,20.1,9.6,30.36,NNW,338,5.6,9.6,63,0.00,,CLR,0.00,VWS V14.01,2013-02-21 08:00:00,
2013-02-21 03:01:00,20.1,8.8,30.36,NW,315,3.6,10.1,61,0.00,,CLR,0.00,VWS V14.01,2013-02-21 08:01:00,
2013-02-21 03:06:00,20.1,9.2,30.36,NW,315,6.0,10.1,62,0.00,,CLR,0.00,VWS V14.01,2013-02-21 08:06:00,
2013-02-21 03:11:00,20.1,9.2,30.36,WNW,292,4.3,6.3,62,0.00,,CLR,0.00,VWS V14.01,2013-02-21 08:11:00,
2013-02-21 03:17:00,20.1,9.2,30.36,North,0,3.1,7.2,62,0.00,,CLR,0.00,VWS V14.01,2013-02-21 08:17:00,
2013-02-21 03:22:00,20.1,9.2,30.39,NNW,338,3.4,7.6,62,0.00,,CLR,0.00,VWS V14.01,2013-02-21 08:22:00,
2013-02-21 03:27:00,20.1,9.2,30.39,NNW,338,4.9,7.6,62,0.00,,CLR,0.00,VWS V14.01,2013-02-21 08:27:00,
2013-02-21 03:32:00,20.1,9.6,30.36,North,0,3.6,7.6,63,0.00,,CLR,0.00,VWS V14.01,2013-02-21 08:32:00,
2013-02-21 03:37:00,20.1,8.8,30.36,NNW,338,5.4,9.6,61,0.00,,CLR,0.00,VWS V14.01,2013-02-21 08:37:00,
2013-02-21 03:42:00,20.1,9.2,30.36,NNW,338,5.6,9.6,62,0.00,,CLR,0.00,VWS V14.01,2013-02-21 08:42:00,
2013-02-21 03:47:00,20.1,9.2,30.36,NNW,338,5.6,9.6,62,0.00,,CLR,0.00,VWS V14.01,2013-02-21 08:47:00,
2013-02-21 03:52:00,20.1,9.2,30.36,NW,315,4.3,9.6,62,0.00,,CLR,0.00,VWS V14.01,2013-02-21 08:52:00,
2013-02-21 03:57:00,20.1,9.2,30.36,NNW,338,6.5,9.6,62,0.00,,CLR,0.00,VWS V14.01,2013-02-21 08:57:00,
2013-02-21 04:02:00,20.1,9.6,30.36,North,0,5.4,9.6,63,0.00,,CLR,0.00,VWS V14.01,2013-02-21 09:02:00,
2013-02-21 04:07:00,20.1,9.6,30.36,NNW,338,5.6,9.6,63,0.00,,CLR,0.00,VWS V14.01,2013-02-21 09:07:00,
2013-02-21 04:12:00,20.1,9.2,30.36,NNW,338,4.3,8.7,62,0.00,,CLR,0.00,VWS V14.01,2013-02-21 09:12:00,
2013-02-21 04:17:00,20.1,9.2,30.36,NW,315,6.5,8.7,62,0.00,,CLR,0.00,VWS V14.01,2013-02-21 09:17:00,
2013-02-21 04:22:00,20.1,9.2,30.36,NNW,338,5.8,8.7,62,0.00,,CLR,0.00,VWS V14.01,2013-02-21 09:22:00,
2013-02-21 04:27:00,20.1,9.2,30.36,NNW,338,5.6,8.7,62,0.00,,CLR,0.00,VWS V14.01,2013-02-21 09:27:00,
2013-02-21 04:32:00,20.1,9.6,30.36,NNW,338,5.6,9.4,63,0.00,,CLR,0.00,VWS V14.01,2013-02-21 09:32:00,
2013-02-21 04:37:00,20.1,10.3,30.36,NNW,338,6.3,9.4,65,0.00,,CLR,0.00,VWS V14.01,2013-02-21 09:37:00,
2013-02-21 04:42:00,20.1,10.6,30.36,NNW,338,3.4,9.4,66,0.00,,CLR,0.00,VWS V14.01,2013-02-21 09:42:00,
2013-02-21 04:47:00,19.9,10.8,30.39,NNE,22,3.4,9.4,67,0.00,,CLR,0.00,VWS V14.01,2013-02-21 09:47:00,
2013-02-21 04:52:00,19.6,10.8,30.39,NNE,22,7.8,9.4,68,0.00,,CLR,0.00,VWS V14.01,2013-02-21 09:52:00,
2013-02-21 04:57:00,19.4,10.2,30.39,NNE,22,8.1,9.4,67,0.00,,CLR,0.00,VWS V14.01,2013-02-21 09:57:00,
2013-02-21 05:00:00,18.9,8.7,30.39,North,0,6.0,10.5,64,0.00,,CLR,0.00,VWS V14.01,2013-02-21 10:00:00,
2013-02-21 05:02:00,19.2,9.7,30.39,NE,45,7.8,10.5,66,0.00,,CLR,0.00,VWS V14.01,2013-02-21 10:02:00,
2013-02-21 05:07:00,19.0,9.6,30.39,NNE,22,8.7,10.5,66,0.00,,CLR,0.00,VWS V14.01,2013-02-21 10:07:00,
2013-02-21 05:12:00,19.0,9.2,30.39,NNE,22,5.8,10.5,65,0.00,,CLR,0.00,VWS V14.01,2013-02-21 10:12:00,
2013-02-21 05:17:00,18.9,8.7,30.36,NE,45,6.5,10.5,64,0.00,,CLR,0.00,VWS V14.01,2013-02-21 10:17:00,
2013-02-21 05:22:00,18.9,9.1,30.36,NNE,22,4.7,10.5,65,0.00,,CLR,0.00,VWS V14.01,2013-02-21 10:22:00,
2013-02-21 05:27:00,18.9,9.1,30.36,NNE,22,4.7,10.5,65,0.00,,CLR,0.00,VWS V14.01,2013-02-21 10:27:00,
2013-02-21 05:32:00,18.7,8.2,30.39,NNE,22,4.0,10.5,63,0.00,,CLR,0.00,VWS V14.01,2013-02-21 10:32:00,
2013-02-21 05:37:00,18.7,8.2,30.39,NNW,338,4.3,10.5,63,0.00,,CLR,0.00,VWS V14.01,2013-02-21 10:37:00,
2013-02-21 05:42:00,18.7,8.2,30.39,NNE,22,5.8,10.5,63,0.00,,CLR,0.00,VWS V14.01,2013-02-21 10:42:00,
2013-02-21 05:47:00,18.7,8.2,30.39,NNE,22,5.8,10.5,63,0.00,,CLR,0.00,VWS V14.01,2013-02-21 10:47:00,
2013-02-21 05:52:00,18.7,8.2,30.39,NNW,338,4.9,10.5,63,0.00,,CLR,0.00,VWS V14.01,2013-02-21 10:52:00,
2013-02-21 05:57:00,18.9,8.7,30.39,North,0,3.4,10.5,64,0.00,,CLR,0.00,VWS V14.01,2013-02-21 10:57:00,
2013-02-21 06:00:00,19.0,8.5,30.39,NNW,338,4.9,8.7,63,0.00,,CLR,0.00,VWS V14.01,2013-02-21 11:00:00,
2013-02-21 06:02:00,18.9,8.7,30.39,NNE,22,6.5,10.5,64,0.00,,CLR,0.00,VWS V14.01,2013-02-21 11:02:00,
2013-02-21 06:08:00,18.9,8.7,30.39,NE,45,4.9,6.3,64,0.00,,CLR,0.00,VWS V14.01,2013-02-21 11:08:00,
2013-02-21 06:13:00,18.9,8.7,30.39,NNE,22,3.6,7.6,64,0.00,,CLR,0.00,VWS V14.01,2013-02-21 11:13:00,
2013-02-21 06:18:00,18.9,9.1,30.36,NE,45,5.6,7.6,65,0.00,,CLR,0.00,VWS V14.01,2013-02-21 11:18:00,
2013-02-21 06:23:00,18.9,8.7,30.36,North,0,6.3,7.6,64,0.00,,CLR,0.00,VWS V14.01,2013-02-21 11:23:00,
2013-02-21 06:28:00,19.0,8.9,30.36,North,0,3.6,7.8,64,0.00,,CLR,0.00,VWS V14.01,2013-02-21 11:28:00,
2013-02-21 06:33:00,19.0,8.9,30.39,NNW,338,4.9,7.8,64,0.00,,CLR,0.00,VWS V14.01,2013-02-21 11:33:00,
2013-02-21 06:38:00,19.0,8.5,30.39,NNW,338,6.5,8.7,63,0.00,,CLR,0.00,VWS V14.01,2013-02-21 11:38:00,
2013-02-21 06:43:00,19.0,8.9,30.39,NNE,22,4.3,8.7,64,0.00,,CLR,0.00,VWS V14.01,2013-02-21 11:43:00,
2013-02-21 06:48:00,18.9,8.0,30.39,NNE,22,6.0,8.7,62,0.00,,CLR,0.00,VWS V14.01,2013-02-21 11:48:00,
2013-02-21 06:53:00,19.0,8.5,30.39,North,0,5.6,8.7,63,0.00,,CLR,0.00,VWS V14.01,2013-02-21 11:53:00,
2013-02-21 06:58:00,18.9,8.4,30.39,NNE,22,5.8,8.7,63,0.00,,CLR,0.00,VWS V14.01,2013-02-21 11:58:00,
2013-02-21 07:00:00,19.0,8.5,30.42,NNE,22,7.4,9.8,63,0.00,,CLR,0.00,VWS V14.01,2013-02-21 12:00:00,
2013-02-21 07:03:00,19.0,8.5,30.39,NNE,22,5.8,8.7,63,0.00,,CLR,0.00,VWS V14.01,2013-02-21 12:03:00,
2013-02-21 07:08:00,19.0,8.9,30.39,NE,45,4.7,5.6,64,0.00,,CLR,0.00,VWS V14.01,2013-02-21 12:08:00,
2013-02-21 07:13:00,19.0,8.9,30.39,NNE,22,8.1,8.1,64,0.00,,CLR,0.00,VWS V14.01,2013-02-21 12:13:00,
2013-02-21 07:18:00,18.9,8.7,30.41,NNE,22,6.3,8.1,64,0.00,,CLR,0.00,VWS V14.01,2013-02-21 12:18:00,
2013-02-21 07:23:00,18.7,8.2,30.41,NNE,22,6.5,8.1,63,0.00,,CLR,0.00,VWS V14.01,2013-02-21 12:23:00,
2013-02-21 07:28:00,18.9,8.4,30.41,NNE,22,6.5,8.1,63,0.00,,CLR,0.00,VWS V14.01,2013-02-21 12:28:00,
2013-02-21 07:33:00,18.7,8.5,30.44,NNE,22,8.5,8.5,64,0.00,,CLR,0.00,VWS V14.01,2013-02-21 12:33:00,
2013-02-21 07:38:00,18.7,8.5,30.44,NE,45,5.6,8.5,64,0.00,,CLR,0.00,VWS V14.01,2013-02-21 12:38:00,
2013-02-21 07:43:00,18.7,8.2,30.44,NE,45,5.8,9.0,63,0.00,,CLR,0.00,VWS V14.01,2013-02-21 12:43:00,
2013-02-21 07:48:00,18.7,8.2,30.44,NNE,22,5.6,9.0,63,0.00,,CLR,0.00,VWS V14.01,2013-02-21 12:48:00,
2013-02-21 07:53:00,18.9,8.7,30.44,NNE,22,4.3,9.8,64,0.00,,CLR,0.00,VWS V14.01,2013-02-21 12:53:00,
2013-02-21 07:58:00,18.9,8.4,30.44,NNE,22,6.3,9.8,63,0.00,,CLR,0.00,VWS V14.01,2013-02-21 12:58:00,
2013-02-21 08:00:00,18.3,6.8,30.44,ENE,68,12.3,12.8,60,0.00,,CLR,0.00,VWS V14.01,2013-02-21 13:00:00,
2013-02-21 08:04:00,19.0,8.5,30.41,North,0,7.4,9.8,63,0.00,,CLR,0.00,VWS V14.01,2013-02-21 13:04:00,
2013-02-21 08:09:00,19.0,8.9,30.41,NE,45,6.5,8.1,64,0.00,,CLR,0.00,VWS V14.01,2013-02-21 13:09:00,
2013-02-21 08:14:00,19.0,8.2,30.41,NNE,22,7.6,8.7,62,0.00,,CLR,0.00,VWS V14.01,2013-02-21 13:14:00,
2013-02-21 08:19:00,19.2,8.7,30.44,NNE,22,10.7,11.0,63,0.00,,CLR,0.00,VWS V14.01,2013-02-21 13:19:00,
2013-02-21 08:24:00,19.2,8.7,30.44,NNE,22,9.8,12.3,63,0.00,,CLR,0.00,VWS V14.01,2013-02-21 13:24:00,
2013-02-21 08:29:00,19.0,7.8,30.44,NNE,22,5.8,12.5,61,0.00,,CLR,0.00,VWS V14.01,2013-02-21 13:29:00,
2013-02-21 08:34:00,19.0,7.8,30.44,NNE,22,10.3,12.5,61,0.00,,CLR,0.00,VWS V14.01,2013-02-21 13:34:00,
2013-02-21 08:39:00,19.2,8.0,30.44,NNE,22,9.2,12.5,61,0.00,,CLR,0.00,VWS V14.01,2013-02-21 13:39:00,
2013-02-21 08:44:00,19.2,7.6,30.44,NNW,338,6.5,12.8,60,0.00,,CLR,0.00,VWS V14.01,2013-02-21 13:44:00,
2013-02-21 08:49:00,19.4,8.2,30.47,NE,45,10.3,12.8,61,0.00,,CLR,0.00,VWS V14.01,2013-02-21 13:49:00,
2013-02-21 08:54:00,19.2,7.6,30.47,ENE,68,8.5,12.8,60,0.00,,CLR,0.00,VWS V14.01,2013-02-21 13:54:00,
2013-02-21 08:59:00,19.0,7.4,30.47,NE,45,11.2,12.8,60,0.00,,CLR,0.00,VWS V14.01,2013-02-21 13:59:00,
2013-02-21 09:00:00,18.1,5.5,30.47,NE,45,8.5,13.0,57,0.00,,CLR,0.00,VWS V14.01,2013-02-21 14:00:00,
2013-02-21 09:04:00,18.5,7.3,30.44,ENE,68,10.1,12.8,61,0.00,,CLR,0.00,VWS V14.01,2013-02-21 14:04:00,
2013-02-21 09:09:00,18.3,7.1,30.44,ENE,68,10.3,12.3,61,0.00,,CLR,0.00,VWS V14.01,2013-02-21 14:09:00,
2013-02-21 09:14:00,18.3,7.1,30.44,NE,45,9.0,12.3,61,0.00,,CLR,0.00,VWS V14.01,2013-02-21 14:14:00,
2013-02-21 09:19:00,18.1,6.6,30.44,ENE,68,10.1,13.0,60,0.00,,CLR,0.00,VWS V14.01,2013-02-21 14:19:00,
2013-02-21 09:24:00,18.3,6.8,30.44,ENE,68,7.8,13.0,60,0.00,,CLR,0.00,VWS V14.01,2013-02-21 14:24:00,
2013-02-21 09:29:00,18.3,7.1,30.44,ENE,68,5.8,13.0,61,0.00,,CLR,0.00,VWS V14.01,2013-02-21 14:29:00,
2013-02-21 09:34:00,18.7,7.5,30.44,ENE,68,7.6,13.0,61,0.00,,CLR,0.00,VWS V14.01,2013-02-21 14:34:00,
2013-02-21 09:39:00,18.7,6.7,30.44,NE,45,6.7,13.0,59,0.00,,CLR,0.00,VWS V14.01,2013-02-21 14:39:00,
2013-02-21 09:44:00,18.7,7.1,30.44,NE,45,6.3,13.0,60,0.00,,CLR,0.00,VWS V14.01,2013-02-21 14:44:00,
2013-02-21 09:49:00,18.7,6.7,30.44,ENE,68,8.1,13.0,59,0.00,,CLR,0.00,VWS V14.01,2013-02-21 14:49:00,
2013-02-21 09:54:00,18.5,6.2,30.44,ENE,68,10.1,13.0,58,0.00,,CLR,0.00,VWS V14.01,2013-02-21 14:54:00,
2013-02-21 09:59:00,18.1,5.5,30.44,ENE,68,7.6,13.0,57,0.00,,CLR,0.00,VWS V14.01,2013-02-21 14:59:00,
2013-02-21 10:00:00,18.7,4.4,30.47,NE,45,10.7,15.2,53,0.00,,CLR,0.00,VWS V14.01,2013-02-21 15:00:00,
2013-02-21 10:04:00,18.1,5.5,30.47,ENE,68,8.1,13.0,57,0.00,,CLR,0.00,VWS V14.01,2013-02-21 15:04:00,
2013-02-21 10:09:00,18.5,6.2,30.47,NNE,22,7.6,9.4,58,0.00,,CLR,0.00,VWS V14.01,2013-02-21 15:09:00,
2013-02-21 10:14:00,18.5,5.8,30.47,ENE,68,6.0,9.4,57,0.00,,CLR,0.00,VWS V14.01,2013-02-21 15:14:00,
2013-02-21 10:19:00,18.7,6.0,30.47,ENE,68,9.6,10.1,57,0.00,,CLR,0.00,VWS V14.01,2013-02-21 15:19:00,
2013-02-21 10:24:00,18.7,6.0,30.47,NNE,22,8.5,10.1,57,0.00,,CLR,0.00,VWS V14.01,2013-02-21 15:24:00,
2013-02-21 10:29:00,18.7,5.2,30.47,ENE,68,7.4,10.5,55,0.00,,CLR,0.00,VWS V14.01,2013-02-21 15:29:00,
2013-02-21 10:34:00,18.7,5.6,30.47,NE,45,8.1,12.5,56,0.00,,CLR,0.00,VWS V14.01,2013-02-21 15:34:00,
2013-02-21 10:39:00,18.9,5.8,30.47,NE,45,10.3,12.5,56,0.00,,CLR,0.00,VWS V14.01,2013-02-21 15:39:00,
2013-02-21 10:44:00,19.0,5.5,30.47,ENE,68,10.5,12.5,55,0.00,,CLR,0.00,VWS V14.01,2013-02-21 15:44:00,
2013-02-21 10:49:00,19.0,5.5,30.50,NE,45,7.8,12.5,55,0.00,,CLR,0.00,VWS V14.01,2013-02-21 15:49:00,
2013-02-21 10:54:00,19.0,5.5,30.50,ENE,68,8.1,12.5,55,0.00,,CLR,0.00,VWS V14.01,2013-02-21 15:54:00,
2013-02-21 10:59:00,18.9,5.0,30.50,NE,45,9.6,12.5,54,0.00,,CLR,0.00,VWS V14.01,2013-02-21 15:59:00,
2013-02-21 11:00:00,23.5,6.8,30.44,ENE,68,2.7,10.7,48,0.00,,CLR,0.00,VWS V14.01,2013-02-21 16:00:00,
2013-02-21 11:04:00,19.0,5.5,30.47,NNE,22,15.2,15.2,55,0.00,,CLR,0.00,VWS V14.01,2013-02-21 16:04:00,
2013-02-21 11:10:00,18.9,5.0,30.47,ENE,68,5.6,10.7,54,0.00,,CLR,0.00,VWS V14.01,2013-02-21 16:10:00,
2013-02-21 11:15:00,19.4,5.5,30.47,ENE,68,8.7,10.7,54,0.00,,CLR,0.00,VWS V14.01,2013-02-21 16:15:00,
2013-02-21 11:20:00,19.4,5.5,30.47,NNE,22,5.8,10.7,54,0.00,,CLR,0.00,VWS V14.01,2013-02-21 16:20:00,
2013-02-21 11:25:00,20.3,5.9,30.47,ENE,68,8.7,10.7,53,0.00,,CLR,0.00,VWS V14.01,2013-02-21 16:25:00,
2013-02-21 11:30:00,20.1,4.9,30.47,NE,45,6.5,10.7,51,0.00,,CLR,0.00,VWS V14.01,2013-02-21 16:30:00,
2013-02-21 11:35:00,20.3,5.1,30.47,NNE,22,3.8,10.7,51,0.00,,CLR,0.00,VWS V14.01,2013-02-21 16:35:00,
2013-02-21 11:40:00,20.5,5.2,30.47,North,0,5.4,10.7,51,0.00,,CLR,0.00,VWS V14.01,2013-02-21 16:40:00,
2013-02-21 11:45:00,20.7,5.0,30.47,North,0,8.7,10.7,50,0.00,,CLR,0.00,VWS V14.01,2013-02-21 16:45:00,
2013-02-21 11:50:00,21.2,5.0,30.47,NNE,22,3.4,10.7,49,0.00,,CLR,0.00,VWS V14.01,2013-02-21 16:50:00,
2013-02-21 11:55:00,21.7,5.1,30.47,NNE,22,4.9,10.7,48,0.00,,CLR,0.00,VWS V14.01,2013-02-21 16:55:00,
2013-02-21 12:00:00,21.7,4.6,30.47,NNE,22,3.8,10.7,47,0.00,,CLR,0.00,VWS V14.01,2013-02-21 17:00:00,
2013-02-21 12:05:00,22.8,5.6,30.44,NNE,22,2.0,10.7,47,0.00,,CLR,0.00,VWS V14.01,2013-02-21 17:05:00,
2013-02-21 12:10:00,22.8,4.7,30.44,NNE,22,5.6,6.7,45,0.00,,CLR,0.00,VWS V14.01,2013-02-21 17:10:00,
2013-02-21 12:15:00,22.5,4.3,30.44,NNE,22,7.2,7.4,45,0.00,,CLR,0.00,VWS V14.01,2013-02-21 17:15:00,
2013-02-21 12:20:00,23.2,5.5,30.47,NE,45,3.4,7.4,46,0.00,,CLR,0.00,VWS V14.01,2013-02-21 17:20:00,
2013-02-21 12:25:00,22.8,5.2,30.47,NNE,22,8.5,8.5,46,0.00,,CLR,0.00,VWS V14.01,2013-02-21 17:25:00,
2013-02-21 12:30:00,22.5,4.8,30.47,NE,45,6.5,8.7,46,0.00,,CLR,0.00,VWS V14.01,2013-02-21 17:30:00,
2013-02-21 12:35:00,22.3,4.7,30.47,NE,45,6.5,8.7,46,0.00,,CLR,0.00,VWS V14.01,2013-02-21 17:35:00,
2013-02-21 12:40:00,22.5,4.8,30.47,NE,45,4.3,8.7,46,0.00,,CLR,0.00,VWS V14.01,2013-02-21 17:40:00,
2013-02-21 12:45:00,23.2,5.0,30.47,NE,45,2.5,8.7,45,0.00,,CLR,0.00,VWS V14.01,2013-02-21 17:45:00,
2013-02-21 12:50:00,23.5,5.3,30.47,NNE,22,5.4,8.7,45,0.00,,CLR,0.00,VWS V14.01,2013-02-21 17:50:00,
2013-02-21 12:55:00,23.5,5.3,30.47,NNE,22,5.4,8.7,45,0.00,,CLR,0.00,VWS V14.01,2013-02-21 17:55:00,
2013-02-21 13:00:00,23.5,5.3,30.47,NNW,338,6.5,8.7,45,0.00,,CLR,0.00,VWS V14.01,2013-02-21 18:00:00,
2013-02-21 13:05:00,23.7,5.5,30.47,NE,45,2.9,8.7,45,0.00,,CLR,0.00,VWS V14.01,2013-02-21 18:05:00,
2013-02-21 13:10:00,24.4,6.2,30.47,NNE,22,3.4,8.7,45,0.00,,CLR,0.00,VWS V14.01,2013-02-21 18:10:00,
2013-02-21 13:15:00,25.0,6.2,30.47,ESE,112,2.5,8.7,44,0.00,,CLR,0.00,VWS V14.01,2013-02-21 18:15:00,
2013-02-21 13:20:00,26.6,7.6,30.47,ESE,112,2.7,8.7,44,0.00,,CLR,0.00,VWS V14.01,2013-02-21 18:20:00,
2013-02-21 13:25:00,25.3,5.5,30.47,ENE,68,5.8,8.7,42,0.00,,CLR,0.00,VWS V14.01,2013-02-21 18:25:00,
2013-02-21 13:30:00,24.3,5.0,30.47,NNW,338,6.0,8.7,43,0.00,,CLR,0.00,VWS V14.01,2013-02-21 18:30:00,
2013-02-21 13:35:00,25.3,6.5,30.47,NNE,22,3.1,8.7,44,0.00,,CLR,0.00,VWS V14.01,2013-02-21 18:35:00,
2013-02-21 13:40:00,25.7,6.3,30.47,NNE,22,4.0,8.7,43,0.00,,CLR,0.00,VWS V14.01,2013-02-21 18:40:00,
2013-02-21 13:45:00,24.6,5.3,30.47,North,0,4.3,8.7,43,0.00,,CLR,0.00,VWS V14.01,2013-02-21 18:45:00,
2013-02-21 13:50:00,26.1,6.6,30.47,NNE,22,5.6,8.7,43,0.00,,CLR,0.00,VWS V14.01,2013-02-21 18:50:00,
2013-02-21 13:56:00,24.8,5.5,30.47,NNE,22,6.5,8.7,43,0.00,,CLR,0.00,VWS V14.01,2013-02-21 18:56:00,
2013-02-21 14:00:00,26.8,7.3,30.44,East,90,2.7,9.8,43,0.00,,CLR,0.00,VWS V14.01,2013-02-21 19:00:00,
2013-02-21 14:01:00,27.0,8.0,30.47,SSE,158,0.0,8.7,44,0.00,,CLR,0.00,VWS V14.01,2013-02-21 19:01:00,
2013-02-21 14:06:00,25.7,6.3,30.47,NW,315,3.1,8.7,43,0.00,,CLR,0.00,VWS V14.01,2013-02-21 19:06:00,
2013-02-21 14:11:00,25.9,6.5,30.47,NNE,22,4.3,4.9,43,0.00,,CLR,0.00,VWS V14.01,2013-02-21 19:11:00,
2013-02-21 14:16:00,26.4,7.0,30.47,NNE,22,4.0,4.9,43,0.00,,CLR,0.00,VWS V14.01,2013-02-21 19:16:00,
2013-02-21 14:21:00,27.0,6.9,30.47,NNW,338,3.6,4.9,42,0.00,,CLR,0.00,VWS V14.01,2013-02-21 19:21:00,
2013-02-21 14:26:00,26.1,6.6,30.47,NW,315,4.3,8.7,43,0.00,,CLR,0.00,VWS V14.01,2013-02-21 19:26:00,
2013-02-21 14:31:00,23.9,4.7,30.44,NNE,22,4.9,8.7,43,0.00,,CLR,0.00,VWS V14.01,2013-02-21 19:31:00,
2013-02-21 14:36:00,24.6,5.3,30.44,NNE,22,4.0,8.7,43,0.00,,CLR,0.00,VWS V14.01,2013-02-21 19:36:00,
2013-02-21 14:41:00,25.0,6.2,30.44,NNW,338,1.6,8.7,44,0.00,,CLR,0.00,VWS V14.01,2013-02-21 19:41:00,
2013-02-21 14:46:00,24.4,5.7,30.44,NNE,22,7.6,9.8,44,0.00,,CLR,0.00,VWS V14.01,2013-02-21 19:46:00,
2013-02-21 14:51:00,24.4,6.2,30.44,NNW,338,3.4,9.8,45,0.00,,CLR,0.00,VWS V14.01,2013-02-21 19:51:00,
2013-02-21 14:56:00,24.3,6.0,30.44,North,0,5.4,9.8,45,0.00,,CLR,0.00,VWS V14.01,2013-02-21 19:56:00,
2013-02-21 15:00:00,27.0,6.9,30.39,East,90,5.8,11.0,42,0.00,,CLR,0.00,VWS V14.01,2013-02-21 20:00:00,
2013-02-21 15:01:00,26.1,8.1,30.44,NE,45,7.2,9.8,46,0.00,,CLR,0.00,VWS V14.01,2013-02-21 20:01:00,
2013-02-21 15:06:00,26.8,7.3,30.44,NNE,22,4.3,9.8,43,0.00,,CLR,0.00,VWS V14.01,2013-02-21 20:06:00,
2013-02-21 15:11:00,26.6,7.1,30.44,NNE,22,7.6,8.7,43,0.00,,CLR,0.00,VWS V14.01,2013-02-21 20:11:00,
2013-02-21 15:16:00,25.3,6.0,30.44,NNE,22,8.5,11.0,43,0.00,,CLR,0.00,VWS V14.01,2013-02-21 20:16:00,
2013-02-21 15:21:00,25.5,6.2,30.44,ENE,68,4.3,11.0,43,0.00,,CLR,0.00,VWS V14.01,2013-02-21 20:21:00,
2013-02-21 15:26:00,27.7,7.6,30.44,NW,315,0.0,11.0,42,0.00,,CLR,0.00,VWS V14.01,2013-02-21 20:26:00,
2013-02-21 15:31:00,29.3,8.5,30.41,NE,45,6.0,11.0,41,0.00,,CLR,0.00,VWS V14.01,2013-02-21 20:31:00,
2013-02-21 15:36:00,27.0,6.9,30.41,ENE,68,7.8,11.0,42,0.00,,CLR,0.00,VWS V14.01,2013-02-21 20:36:00,
2013-02-21 15:41:00,27.0,6.9,30.41,ENE,68,5.8,11.0,42,0.00,,CLR,0.00,VWS V14.01,2013-02-21 20:41:00,
2013-02-21 15:46:00,27.5,7.4,30.41,East,90,5.8,11.0,42,0.00,,CLR,0.00,VWS V14.01,2013-02-21 20:46:00,
2013-02-21 15:51:00,27.9,7.8,30.39,ENE,68,6.5,11.0,42,0.00,,CLR,0.00,VWS V14.01,2013-02-21 20:51:00,
2013-02-21 15:56:00,27.9,7.8,30.39,ESE,112,8.1,11.0,42,0.00,,CLR,0.00,VWS V14.01,2013-02-21 20:56:00,
2013-02-21 16:00:00,23.7,6.4,30.44,East,90,5.4,10.5,47,0.00,,CLR,0.00,VWS V14.01,2013-02-21 21:00:00,
2013-02-21 16:01:00,28.0,7.9,30.39,ENE,68,7.6,11.0,42,0.00,,CLR,0.00,VWS V14.01,2013-02-21 21:01:00,
2013-02-21 16:06:00,27.0,6.9,30.39,East,90,6.0,11.0,42,0.00,,CLR,0.00,VWS V14.01,2013-02-21 21:06:00,
2013-02-21 16:11:00,26.2,7.3,30.39,NE,45,9.6,9.6,44,0.00,,CLR,0.00,VWS V14.01,2013-02-21 21:11:00,
2013-02-21 16:16:00,26.6,7.1,30.39,ENE,68,4.0,9.6,43,0.00,,CLR,0.00,VWS V14.01,2013-02-21 21:16:00,
2013-02-21 16:21:00,26.4,7.0,30.39,East,90,6.0,9.6,43,0.00,,CLR,0.00,VWS V14.01,2013-02-21 21:21:00,
2013-02-21 16:27:00,25.5,6.2,30.39,ENE,68,6.5,9.6,43,0.00,,CLR,0.00,VWS V14.01,2013-02-21 21:27:00,
2013-02-21 16:32:00,24.4,6.6,30.39,NE,45,7.8,10.1,46,0.00,,CLR,0.00,VWS V14.01,2013-02-21 21:32:00,
2013-02-21 16:37:00,24.1,6.3,30.39,ENE,68,5.8,10.1,46,0.00,,CLR,0.00,VWS V14.01,2013-02-21 21:37:00,
2013-02-21 16:42:00,24.1,7.2,30.39,NE,45,10.5,10.5,48,0.00,,CLR,0.00,VWS V14.01,2013-02-21 21:42:00,
2013-02-21 16:47:00,24.1,7.7,30.41,East,90,7.4,10.5,49,0.00,,CLR,0.00,VWS V14.01,2013-02-21 21:47:00,
2013-02-21 16:52:00,24.3,6.9,30.41,ESE,112,5.8,10.5,47,0.00,,CLR,0.00,VWS V14.01,2013-02-21 21:52:00,
2013-02-21 16:57:00,24.1,6.8,30.41,East,90,8.7,10.5,47,0.00,,CLR,0.00,VWS V14.01,2013-02-21 21:57:00,
2013-02-21 17:00:00,22.1,7.6,30.44,East,90,6.5,9.8,53,0.00,,CLR,0.00,VWS V14.01,2013-02-21 22:00:00,
2013-02-21 17:02:00,23.9,6.6,30.44,East,90,4.9,10.5,47,0.00,,CLR,0.00,VWS V14.01,2013-02-21 22:02:00,
2013-02-21 17:07:00,23.7,6.4,30.44,East,90,5.4,10.5,47,0.00,,CLR,0.00,VWS V14.01,2013-02-21 22:07:00,
2013-02-21 17:12:00,23.5,6.8,30.44,ENE,68,5.8,7.6,48,0.00,,CLR,0.00,VWS V14.01,2013-02-21 22:12:00,
2013-02-21 17:17:00,23.5,7.2,30.41,ENE,68,8.7,8.7,49,0.00,,CLR,0.00,VWS V14.01,2013-02-21 22:17:00,
2013-02-21 17:22:00,23.4,6.1,30.41,East,90,5.6,8.7,47,0.00,,CLR,0.00,VWS V14.01,2013-02-21 22:22:00,
2013-02-21 17:27:00,23.4,7.5,30.41,ESE,112,6.3,8.7,50,0.00,,CLR,0.00,VWS V14.01,2013-02-21 22:27:00,
2013-02-21 17:32:00,23.2,6.4,30.44,ENE,68,5.4,8.7,48,0.00,,CLR,0.00,VWS V14.01,2013-02-21 22:32:00,
2013-02-21 17:37:00,22.8,5.6,30.44,ESE,112,3.6,8.7,47,0.00,,CLR,0.00,VWS V14.01,2013-02-21 22:37:00,
2013-02-21 17:42:00,22.8,6.1,30.44,ESE,112,3.8,8.7,48,0.00,,CLR,0.00,VWS V14.01,2013-02-21 22:42:00,
2013-02-21 17:47:00,22.8,7.8,30.44,East,90,8.7,9.6,52,0.00,,CLR,0.00,VWS V14.01,2013-02-21 22:47:00,
2013-02-21 17:52:00,22.6,7.2,30.44,East,90,7.6,9.6,51,0.00,,CLR,0.00,VWS V14.01,2013-02-21 22:52:00,
2013-02-21 17:57:00,22.5,7.9,30.44,ENE,68,7.8,9.6,53,0.00,,CLR,0.00,VWS V14.01,2013-02-21 22:57:00,
2013-02-21 18:00:00,21.0,8.2,30.42,East,90,8.5,11.0,57,0.00,,CLR,0.00,VWS V14.01,2013-02-21 23:00:00,
2013-02-21 18:02:00,22.3,7.3,30.44,ENE,68,6.5,9.8,52,0.00,,CLR,0.00,VWS V14.01,2013-02-21 23:02:00,
2013-02-21 18:07:00,22.1,7.6,30.44,ESE,112,6.3,6.5,53,0.00,,CLR,0.00,VWS V14.01,2013-02-21 23:07:00,
2013-02-21 18:13:00,21.9,7.8,30.44,East,90,9.8,10.1,54,0.00,,CLR,0.00,VWS V14.01,2013-02-21 23:13:00,
2013-02-21 18:18:00,21.9,8.2,30.44,ENE,68,6.3,10.1,55,0.00,,CLR,0.00,VWS V14.01,2013-02-21 23:18:00,
2013-02-21 18:23:00,21.7,8.1,30.44,East,90,6.5,10.3,55,0.00,,CLR,0.00,VWS V14.01,2013-02-21 23:23:00,
2013-02-21 18:28:00,21.7,8.5,30.44,ENE,68,7.4,10.7,56,0.00,,CLR,0.00,VWS V14.01,2013-02-21 23:28:00,
2013-02-21 18:33:00,21.6,8.3,30.44,ENE,68,8.1,10.7,56,0.00,,CLR,0.00,VWS V14.01,2013-02-21 23:33:00,
2013-02-21 18:38:00,21.6,8.7,30.44,ENE,68,6.3,10.7,57,0.00,,CLR,0.00,VWS V14.01,2013-02-21 23:38:00,
2013-02-21 18:43:00,21.4,8.9,30.44,East,90,7.6,10.7,58,0.00,,CLR,0.00,VWS V14.01,2013-02-21 23:43:00,
2013-02-21 18:48:00,21.2,9.1,30.41,ENE,68,9.8,11.0,59,0.00,,CLR,0.00,VWS V14.01,2013-02-21 23:48:00,
2013-02-21 18:53:00,21.2,8.0,30.41,ENE,68,10.7,11.0,56,0.00,,CLR,0.00,VWS V14.01,2013-02-21 23:53:00,
2013-02-21 18:58:00,21.0,8.2,30.41,East,90,8.5,11.0,57,0.00,,CLR,0.00,VWS V14.01,2013-02-21 23:58:00,
2013-02-21 19:00:00,19.6,7.6,30.39,ESE,112,7.6,12.5,59,0.00,,CLR,0.00,VWS V14.01,2013-02-22 00:00:00,
2013-02-21 19:03:00,21.0,8.6,30.41,ENE,68,7.8,11.0,58,0.00,,CLR,0.00,VWS V14.01,2013-02-22 00:03:00,
2013-02-21 19:08:00,20.8,8.0,30.41,East,90,7.6,8.5,57,0.00,,CLR,0.00,VWS V14.01,2013-02-22 00:08:00,
2013-02-21 19:13:00,20.8,8.0,30.41,ESE,112,8.7,10.3,57,0.00,,CLR,0.00,VWS V14.01,2013-02-22 00:13:00,
2013-02-21 19:18:00,20.7,7.8,30.41,ESE,112,7.8,10.3,57,0.00,,CLR,0.00,VWS V14.01,2013-02-22 00:18:00,
2013-02-21 19:23:00,20.5,8.1,30.41,East,90,9.6,12.1,58,0.00,,CLR,0.00,VWS V14.01,2013-02-22 00:23:00,
2013-02-21 20:00:00,19.4,9.9,30.39,East,90,12.8,15.4,66,0.00,,CLR,0.00,VWS V14.01,2013-02-22 01:00:00,
2013-02-21 21:00:00,20.1,11.3,30.36,ENE,68,7.8,17.2,68,0.00,,CLR,0.00,VWS V14.01,2013-02-22 02:00:00,
2013-02-21 22:00:00,20.8,14.5,30.36,ESE,112,6.0,13.2,76,0.00,,CLR,0.00,VWS V14.01,2013-02-22 03:00:00,
2013-02-21 23:00:00,21.4,17.3,30.33,ESE,112,6.5,14.5,84,0.00,,CLR,0.00,VWS V14.01,2013-02-22 04:00:00,